Wind_Speed
15 15 17 21 24 27 30 30 31 32 33 35 37 38 40 42 43 43 42 41 42 43 43 42 41 40 40 40 41 41 42 42 43 44 45 46 47 48 48 47 47 47 47
12 13 15 18 21 24 26 29 31 33 34 35 36 37 38 40 40 41 41 41 41 43 44 43 42 43 43 43 43 44 45 45 46 46 46 47 47 47 46 46 46 46 46
13 15 16 17 19 23 26 29 30 32 33 34 35 36 37 38 39 39 40 40 41 42 43 44 44 44 44 45 45 46 47 47 47 47 47 46 46 45 45 45 45 45 45
15 17 19 20 22 23 25 27 30 31 32 34 35 36 38 39 40 41 43 44 44 44 45 46 46 46 46 46 46 47 47 47 48 47 46 45 45 45 45 44 43 43 42
19 21 23 25 26 28 30 32 33 34 36 37 38 40 41 42 44 45 46 47 48 48 48 48 48 48 47 48 48 47 47 47 47 46 45 45 44 44 43 43 42 41 41
24 26 27 29 31 33 35 36 38 39 41 43 44 44 45 46 48 49 49 50 50 49 49 49 50 50 49 48 48 47 46 46 46 45 45 44 44 44 43 42 41 40 40
28 30 32 34 36 39 40 42 43 44 45 46 47 48 49 50 50 51 51 51 51 51 50 50 50 49 49 48 47 47 46 46 46 45 45 44 44 43 42 41 40 40 39
32 34 37 39 41 43 45 46 47 49 50 50 51 51 52 52 53 53 52 52 51 51 51 50 49 49 49 49 47 47 46 46 45 45 44 44 44 43 42 40 40 39 38
37 40 42 45 47 48 50 51 52 52 53 53 54 54 54 54 54 54 53 53 52 51 51 51 51 50 49 49 48 48 47 46 45 45 44 44 43 42 41 40 39 38 37
41 44 47 49 51 52 54 55 55 56 56 56 55 54 54 54 54 54 53 53 52 52 52 51 51 50 50 49 48 48 48 46 46 45 44 43 42 41 40 39 38 37 36
46 48 50 52 54 56 57 57 58 58 57 56 56 55 55 54 54 53 53 53 53 53 53 52 51 50 50 49 49 48 47 46 45 44 43 42 41 40 39 38 37 36 35
49 52 54 56 58 59 59 60 60 59 59 58 56 55 54 54 53 53 53 52 53 53 53 52 52 51 50 49 49 47 46 45 44 43 42 41 40 39 38 37 36 35 34
53 55 57 59 61 62 62 62 61 60 58 57 56 55 54 53 53 53 53 53 53 53 52 53 52 52 51 49 49 47 46 45 43 42 41 41 39 38 37 36 35 34 33
57 58 60 61 62 63 63 62 61 60 59 57 56 54 54 53 53 53 53 53 54 53 52 52 51 51 51 49 48 47 46 45 44 42 41 40 39 38 36 36 35 34 32
60 61 61 61 62 62 61 60 59 58 58 56 55 54 52 51 51 52 52 52 52 52 52 51 50 49 48 48 47 47 45 44 43 41 40 40 39 37 36 35 34 33 32
60 60 61 61 61 60 59 58 57 56 55 55 54 52 50 50 50 50 51 51 51 51 51 50 50 49 48 47 46 45 44 43 41 40 39 39 38 37 36 35 34 33 32
59 60 60 60 60 58 57 57 56 55 55 53 52 50 48 47 47 48 49 50 51 51 50 49 48 47 46 45 44 43 43 42 40 39 39 38 37 36 35 34 33 33 32
59 59 59 58 57 56 55 55 55 53 52 51 50 49 48 46 45 45 46 48 50 50 49 48 47 46 44 43 42 42 42 41 40 39 39 38 37 36 35 34 34 33 32
58 57 56 55 54 53 53 53 52 50 49 47 46 46 45 45 44 44 45 46 47 48 48 46 46 44 44 42 41 41 40 40 39 39 38 37 36 35 35 34 34 33 33
56 55 54 52 51 51 50 50 48 46 45 43 42 41 41 42 41 42 43 43 45 46 46 46 45 44 43 42 41 41 40 39 38 38 37 36 36 35 35 34 34 33 33
54 52 51 50 49 48 47 45 43 41 40 39 39 39 39 39 39 40 40 41 42 43 44 44 44 44 43 41 41 40 39 38 37 37 36 36 35 35 34 34 34 33 33
52 50 48 47 46 44 42 39 38 37 36 36 36 36 36 37 37 38 38 39 40 41 41 41 42 42 42 41 40 39 39 37 36 36 35 35 35 35 35 34 34 33 33
50 48 45 43 41 39 37 35 33 32 32 33 32 32 33 34 35 35 36 37 38 39 39 39 39 40 39 39 39 38 38 37 36 35 35 35 35 35 35 34 34 34 33
48 45 42 40 37 35 33 32 31 30 29 28 28 28 28 29 31 32 33 34 36 37 38 37 38 39 38 38 37 37 36 36 36 35 35 35 35 34 34 34 34 34 34
45 42 38 36 34 32 31 29 28 27 26 25 24 24 25 26 27 29 30 32 34 35 36 35 36 37 37 37 37 36 35 35 35 35 35 34 34 34 34 34 34 34 34
42 39 36 34 31 30 28 27 26 24 23 23 22 22 21 22 23 25 28 30 32 33 34 34 34 34 35 35 35 35 35 35 34 34 34 34 33 33 33 34 34 34 34
Wind_Direction
228 229 233 236 239 243 245 247 251 252 254 255 255 256 256 256 257 259 260 262 262 262 262 262 265 268 269 270 272 274 275 277 279 281 282 284 287 289 290 291 291 292 293
239 243 244 244 246 250 251 251 252 254 256 257 256 258 259 259 259 261 260 262 261 261 261 263 267 269 269 269 271 273 274 276 278 280 282 284 286 287 288 289 290 291 292
261 265 264 264 263 262 261 260 261 262 261 262 261 261 262 261 261 261 261 262 263 262 264 266 268 269 268 269 271 272 274 275 278 280 281 283 284 285 286 287 289 290 291
272 272 272 272 270 269 269 268 267 266 266 266 265 264 263 263 263 263 264 264 265 265 267 267 267 267 268 269 270 272 273 275 277 278 280 281 283 284 285 287 288 290 291
277 275 274 273 273 271 271 270 269 269 268 266 266 266 265 264 263 263 264 264 265 265 265 266 266 267 267 269 270 271 272 274 275 276 278 279 281 283 284 286 288 289 289
282 280 280 279 278 278 276 274 272 272 271 269 267 266 265 264 263 263 263 263 264 265 265 265 265 266 267 268 269 270 272 273 274 275 277 278 280 282 283 285 286 287 287
283 283 283 283 282 281 280 278 276 275 273 270 268 267 266 265 264 263 263 263 263 263 263 263 264 265 265 266 267 269 270 271 272 274 276 277 279 280 282 283 284 284 285
286 285 284 284 283 281 280 279 278 277 275 273 270 269 268 266 265 264 263 262 262 262 262 262 262 263 264 265 266 267 269 270 271 273 274 276 277 278 280 281 282 283 283
290 289 287 286 285 283 282 280 279 278 276 275 272 271 269 267 265 263 262 262 261 260 260 260 261 262 262 263 264 266 267 268 269 271 272 274 275 277 278 279 280 281 281
290 289 288 287 285 284 284 283 282 280 278 276 274 272 269 267 264 262 261 261 260 259 259 260 261 261 262 263 263 264 265 267 268 270 271 272 274 275 276 277 278 278 278
292 291 289 288 288 286 285 284 283 281 279 277 275 273 270 267 264 263 261 260 259 258 258 258 259 259 260 261 262 263 264 265 267 268 269 271 272 273 274 275 275 275 275
292 291 290 288 288 287 286 285 283 281 280 278 275 273 270 266 264 261 259 258 257 256 256 256 256 257 258 259 259 260 262 263 264 265 267 268 270 270 272 272 272 272 272
293 292 291 289 288 287 286 285 283 281 280 278 275 273 269 266 262 260 257 255 255 254 254 254 255 255 255 256 257 258 259 260 262 263 265 266 267 268 269 270 270 270 270
295 293 291 290 289 288 286 285 283 282 280 278 275 272 269 266 262 258 255 253 253 253 252 253 253 253 254 254 255 256 257 259 260 261 262 263 264 265 267 268 268 268 268
296 294 292 291 289 288 287 285 284 282 280 278 275 272 269 265 260 256 253 251 251 251 250 250 251 252 252 253 254 255 256 257 258 259 260 261 262 263 264 265 265 265 265
298 295 293 292 290 288 286 285 284 282 280 278 276 273 270 266 261 256 252 250 249 249 249 249 249 249 250 251 252 253 254 255 256 257 258 259 260 261 262 262 263 262 261
299 297 294 293 291 289 287 285 283 281 279 277 275 272 270 267 262 256 253 250 248 246 246 247 247 247 248 249 250 251 252 253 253 255 256 257 258 259 260 260 260 260 259
300 298 296 294 292 289 288 286 284 282 279 276 272 270 268 265 260 255 252 249 246 245 245 244 245 244 245 247 248 249 250 251 252 253 254 255 256 257 258 258 257 258 258
301 300 298 297 294 291 288 287 285 283 280 276 272 269 266 263 258 254 251 248 246 244 243 243 242 242 243 244 245 246 248 249 251 252 252 253 255 255 256 255 256 256 257
304 302 300 298 296 293 291 288 286 282 279 276 272 268 264 259 255 252 250 248 245 243 241 241 240 240 241 242 243 244 246 248 250 251 251 252 253 254 254 255 255 256 256
306 304 301 299 297 295 294 291 287 283 279 275 271 267 262 257 253 250 248 246 243 241 239 239 239 238 239 240 241 243 244 246 248 249 249 250 250 252 253 254 255 255 255
308 306 303 301 299 297 295 293 289 284 280 276 272 267 261 256 251 248 245 243 241 238 237 238 237 237 238 239 239 241 243 245 246 248 249 249 249 251 252 253 255 255 255
310 308 305 303 300 298 296 293 291 287 282 278 273 268 261 255 250 245 243 241 239 236 235 235 235 234 235 236 236 238 241 244 246 247 249 249 250 251 252 253 254 255 255
311 309 307 304 301 298 295 293 291 288 284 280 274 269 261 254 248 243 240 238 236 234 233 233 233 233 234 235 235 237 240 242 244 246 248 249 250 251 252 252 253 254 255
312 309 307 305 303 299 296 293 291 288 284 280 276 269 261 254 248 242 238 235 233 232 231 231 231 233 234 235 236 237 239 241 243 245 247 248 249 250 250 251 252 254 256
313 310 307 305 303 301 298 295 291 288 283 279 275 268 260 253 246 240 235 232 230 230 229 230 230 232 233 234 236 237 239 241 243 245 247 248 249 250 250 251 252 254 256
Height
5670 5674 5677 5680 5684 5687 5690 5693 5696 5698 5700 5702 5705 5707 5709 5711 5712 5713 5714 5715 5716 5717 5718 5718 5719 5719 5720 5720 5720 5720 5719 5719 5719 5718 5716 5714 5712 5709 5707 5704 5701 5698 5695
5667 5670 5672 5676 5678 5681 5683 5685 5688 5690 5692 5694 5695 5697 5698 5700 5701 5702 5703 5704 5705 5706 5706 5707 5708 5708 5708 5708 5708 5708 5707 5707 5706 5706 5704 5702 5700 5698 5695 5693 5690 5687 5684
5662 5665 5667 5670 5672 5674 5676 5678 5680 5681 5682 5684 5685 5686 5687 5688 5689 5690 5691 5691 5692 5693 5694 5695 5695 5695 5695 5696 5695 5695 5695 5694 5694 5693 5692 5690 5688 5686 5684 5681 5678 5676 5673
5657 5659 5661 5663 5665 5666 5668 5669 5670 5671 5672 5673 5674 5674 5676 5676 5677 5677 5678 5679 5680 5681 5681 5682 5682 5682 5682 5683 5682 5682 5682 5682 5681 5680 5679 5678 5676 5674 5672 5670 5668 5665 5662
5652 5653 5654 5656 5657 5657 5658 5659 5659 5660 5660 5661 5661 5662 5663 5663 5663 5664 5664 5665 5666 5667 5667 5668 5668 5669 5669 5669 5669 5669 5669 5669 5668 5667 5667 5666 5664 5662 5661 5659 5657 5654 5651
5645 5646 5646 5647 5647 5647 5647 5647 5648 5648 5648 5648 5648 5648 5648 5649 5649 5649 5650 5650 5651 5652 5653 5653 5654 5654 5654 5655 5655 5656 5656 5656 5656 5655 5654 5654 5652 5651 5649 5647 5645 5643 5641
5637 5637 5637 5636 5636 5635 5635 5634 5634 5633 5633 5633 5633 5633 5633 5633 5633 5633 5634 5635 5636 5636 5637 5638 5639 5639 5640 5641 5641 5641 5642 5642 5643 5643 5642 5641 5640 5639 5638 5636 5634 5632 5630
5628 5627 5626 5625 5624 5622 5621 5620 5619 5618 5617 5616 5616 5616 5616 5616 5616 5617 5617 5618 5620 5621 5622 5623 5624 5625 5626 5626 5627 5628 5628 5629 5629 5629 5629 5629 5628 5627 5626 5625 5623 5622 5620
5617 5616 5614 5612 5610 5608 5606 5604 5602 5601 5599 5598 5598 5597 5598 5598 5598 5599 5599 5601 5602 5604 5605 5607 5608 5609 5611 5612 5613 5614 5615 5615 5615 5616 5616 5616 5616 5615 5614 5613 5612 5611 5609
5606 5604 5601 5598 5595 5592 5590 5587 5584 5582 5581 5579 5579 5578 5579 5579 5580 5580 5581 5583 5585 5587 5589 5591 5592 5594 5595 5597 5598 5600 5601 5602 5602 5603 5603 5604 5603 5603 5602 5602 5601 5600 5599
5594 5590 5586 5583 5579 5576 5572 5569 5566 5563 5562 5560 5560 5559 5559 5560 5561 5562 5563 5565 5567 5569 5572 5574 5576 5578 5580 5582 5584 5586 5587 5588 5589 5590 5590 5591 5591 5591 5590 5590 5590 5590 5589
5580 5576 5571 5567 5562 5558 5554 5550 5546 5544 5542 5540 5539 5539 5540 5540 5542 5543 5545 5547 5549 5551 5555 5557 5560 5562 5564 5567 5569 5571 5573 5574 5576 5576 5577 5578 5578 5579 5579 5579 5579 5579 5579
5564 5559 5554 5549 5544 5539 5534 5530 5526 5523 5521 5520 5519 5519 5520 5520 5522 5524 5526 5528 5530 5533 5537 5540 5543 5546 5548 5551 5554 5556 5559 5561 5562 5563 5565 5566 5566 5567 5567 5568 5568 5568 5568
5547 5541 5535 5530 5524 5519 5514 5509 5506 5503 5501 5499 5499 5499 5500 5501 5502 5504 5506 5509 5512 5516 5519 5523 5526 5530 5533 5536 5539 5542 5544 5547 5549 5550 5552 5553 5554 5555 5556 5557 5557 5558 5558
5529 5522 5516 5510 5504 5499 5494 5490 5486 5483 5480 5479 5478 5478 5479 5481 5482 5484 5487 5490 5494 5498 5501 5505 5510 5514 5518 5521 5524 5527 5530 5533 5535 5537 5539 5541 5542 5543 5544 5545 5546 5547 5548
5511 5503 5497 5490 5484 5479 5475 5471 5466 5463 5461 5459 5458 5458 5459 5461 5463 5465 5469 5472 5476 5480 5484 5489 5494 5499 5503 5506 5510 5513 5516 5519 5521 5524 5526 5528 5530 5532 5533 5534 5536 5537 5538
5492 5485 5478 5471 5464 5459 5455 5451 5448 5446 5442 5440 5439 5439 5440 5442 5444 5447 5450 5454 5458 5463 5468 5474 5479 5484 5488 5492 5496 5499 5502 5505 5508 5511 5514 5516 5518 5520 5522 5523 5525 5526 5527
5474 5466 5458 5452 5446 5440 5436 5431 5428 5426 5425 5423 5421 5421 5422 5423 5426 5429 5433 5436 5442 5447 5453 5458 5464 5469 5473 5478 5482 5485 5489 5492 5496 5498 5501 5504 5506 5508 5510 5512 5514 5515 5517
5455 5447 5440 5433 5427 5422 5417 5413 5409 5406 5405 5404 5404 5404 5404 5406 5409 5412 5415 5420 5426 5431 5437 5443 5448 5454 5459 5464 5468 5472 5476 5479 5483 5486 5489 5491 5494 5497 5499 5501 5503 5504 5506
5438 5430 5422 5416 5410 5404 5399 5395 5391 5389 5387 5387 5387 5387 5388 5389 5392 5396 5400 5404 5410 5416 5422 5428 5434 5439 5445 5450 5454 5459 5463 5467 5470 5473 5476 5479 5482 5485 5487 5490 5492 5494 5496
5422 5414 5406 5400 5394 5388 5383 5379 5376 5373 5372 5371 5371 5371 5372 5374 5378 5381 5385 5390 5395 5401 5408 5413 5419 5425 5431 5436 5441 5446 5450 5455 5458 5461 5465 5467 5470 5473 5476 5478 5481 5483 5485
5406 5399 5392 5385 5379 5374 5369 5365 5362 5360 5358 5357 5357 5358 5358 5361 5364 5367 5372 5377 5382 5388 5394 5400 5406 5412 5418 5423 5428 5433 5438 5443 5446 5450 5453 5456 5459 5462 5465 5467 5470 5472 5474
5392 5385 5378 5372 5366 5361 5357 5353 5350 5348 5346 5345 5345 5345 5346 5348 5351 5355 5359 5364 5370 5376 5382 5388 5394 5400 5406 5411 5416 5422 5426 5431 5435 5438 5441 5445 5448 5451 5453 5456 5458 5461 5463
5378 5371 5365 5359 5354 5350 5346 5343 5340 5338 5336 5335 5334 5334 5335 5337 5340 5344 5348 5353 5359 5365 5371 5377 5383 5389 5394 5400 5405 5410 5415 5419 5423 5427 5430 5434 5437 5439 5442 5445 5447 5450 5452
5365 5359 5353 5348 5344 5340 5336 5333 5331 5328 5327 5326 5325 5325 5326 5328 5330 5334 5338 5343 5348 5354 5360 5366 5372 5378 5384 5389 5395 5399 5404 5408 5412 5416 5419 5423 5426 5429 5431 5434 5436 5439 5441
5354 5348 5343 5338 5333 5330 5327 5324 5322 5320 5319 5318 5318 5318 5319 5320 5322 5326 5330 5334 5340 5345 5351 5357 5363 5369 5374 5379 5384 5389 5393 5398 5402 5405 5409 5412 5415 5418 5420 5423 5425 5428 5429